owner,sensor,date,latitude,longitude,sea_surface_height_above_sea_level,qcFlag 
TCOON,ioos:station:TCOON:006:1,2013-12-09T14:54:00Z,27.8217,-97.2040,1.081,1111122 
TCOON,ioos:station:TCOON:006:1,2013-12-09T15:24:00Z,27.8217,-97.2040,1.087,1111122 
TCOON,ioos:station:TCOON:006:1,2013-12-09T16:48:00Z,27.8217,-97.2040,1.078,1111122 
TCOON,ioos:station:TCOON:006:1,2013-12-09T17:24:00Z,27.8217,-97.2040,1.078,1111122 
TCOON,ioos:station:TCOON:006:1,2013-12-09T18:24:00Z,27.8217,-97.2040,1.088,1111122 
TCOON,ioos:station:TCOON:006:1,2013-12-09T19:24:00Z,27.8217,-97.2040,1.073,1111122 
TCOON,ioos:station:TCOON:006:1,2013-12-09T20:24:00Z,27.8217,-97.2040,1.071,1111122 
TCOON,ioos:station:TCOON:006:1,2013-12-09T21:24:00Z,27.8217,-97.2040,1.063,1111122 
TCOON,ioos:station:TCOON:006:1,2013-12-09T22:24:00Z,27.8217,-97.2040,1.052,1111122 
TCOON,ioos:station:TCOON:006:1,2013-12-09T23:24:00Z,27.8217,-97.2040,1.055,1111122 
TCOON,ioos:station:TCOON:006:1,2013-12-10T00:24:00Z,27.8217,-97.2040,1.068,1111122 
TCOON,ioos:station:TCOON:006:1,2013-12-10T01:24:00Z,27.8217,-97.2040,1.065,1111122 
TCOON,ioos:station:TCOON:006:1,2013-12-10T02:24:00Z,27.8217,-97.2040,1.076,1111122 
TCOON,ioos:station:TCOON:006:1,2013-12-10T03:24:00Z,27.8217,-97.2040,1.086,1111122 
TCOON,ioos:station:TCOON:006:1,2013-12-10T04:24:00Z,27.8217,-97.2040,1.102,1111122 
TCOON,ioos:station:TCOON:006:1,2013-12-10T09:24:00Z,27.8217,-97.2040,1.071,1111122 
TCOON,ioos:station:TCOON:006:1,2013-12-10T10:54:00Z,27.8217,-97.2040,1.046,1111122 
TCOON,ioos:station:TCOON:006:1,2013-12-10T12:24:00Z,27.8217,-97.2040,1.013,1111122 
TCOON,ioos:station:TCOON:006:1,2013-12-10T20:24:00Z,27.8217,-97.2040,0.999,1111122 
TCOON,ioos:station:TCOON:006:1,2013-12-11T01:54:00Z,27.8217,-97.2040,0.958,1111122 
TCOON,ioos:station:TCOON:006:1,2013-12-11T17:54:00Z,27.8217,-97.2040,0.915,1111122 
TCOON,ioos:station:TCOON:006:1,2013-12-11T19:24:00Z,27.8217,-97.2040,0.948,1111122 
TCOON,ioos:station:TCOON:006:1,2013-12-11T21:24:00Z,27.8217,-97.2040,0.977,1111122 
TCOON,ioos:station:TCOON:006:1,2013-12-12T11:24:00Z,27.8217,-97.2040,0.936,1111122 
TCOON,ioos:station:TCOON:006:1,2013-12-12T15:24:00Z,27.8217,-97.2040,0.871,1111122 
TCOON,ioos:station:TCOON:006:1,2013-12-12T16:24:00Z,27.8217,-97.2040,0.865,1111122 
TCOON,ioos:station:TCOON:006:1,2013-12-12T17:24:00Z,27.8217,-97.2040,0.887,1111122 
TCOON,ioos:station:TCOON:006:1,2013-12-12T19:24:00Z,27.8217,-97.2040,0.914,1111122 
TCOON,ioos:station:TCOON:006:1,2013-12-12T21:24:00Z,27.8217,-97.2040,0.961,1111122 
TCOON,ioos:station:TCOON:006:1,2013-12-12T22:24:00Z,27.8217,-97.2040,0.969,1111122 
TCOON,ioos:station:TCOON:006:1,2013-12-12T22:54:00Z,27.8217,-97.2040,0.98,1111122 
TCOON,ioos:station:TCOON:006:1,2013-12-12T23:54:00Z,27.8217,-97.2040,0.987,1111122 
TCOON,ioos:station:TCOON:006:1,2013-12-13T00:54:00Z,27.8217,-97.2040,0.996,1111122 
TCOON,ioos:station:TCOON:006:1,2013-12-13T01:54:00Z,27.8217,-97.2040,1.001,1111122 
TCOON,ioos:station:TCOON:006:1,2013-12-13T02:54:00Z,27.8217,-97.2040,1.008,1111122 
TCOON,ioos:station:TCOON:006:1,2013-12-13T03:54:00Z,27.8217,-97.2040,1.025,1111122 
TCOON,ioos:station:TCOON:006:1,2013-12-13T04:54:00Z,27.8217,-97.2040,1.025,1111122 
TCOON,ioos:station:TCOON:006:1,2013-12-13T06:18:00Z,27.8217,-97.2040,1.032,1111122 
TCOON,ioos:station:TCOON:006:1,2013-12-13T06:48:00Z,27.8217,-97.2040,1.04,1111122 
TCOON,ioos:station:TCOON:006:1,2013-12-13T07:18:00Z,27.8217,-97.2040,1.03,1111122 
TCOON,ioos:station:TCOON:006:1,2013-12-13T07:48:00Z,27.8217,-97.2040,1.019,1111122 
TCOON,ioos:station:TCOON:006:1,2013-12-13T08:18:00Z,27.8217,-97.2040,1.014,1111122 
TCOON,ioos:station:TCOON:006:1,2013-12-13T08:48:00Z,27.8217,-97.2040,1.01,1111122 
TCOON,ioos:station:TCOON:006:1,2013-12-13T09:18:00Z,27.8217,-97.2040,0.997,1111122 
TCOON,ioos:station:TCOON:006:1,2013-12-13T09:48:00Z,27.8217,-97.2040,0.993,1111122 
TCOON,ioos:station:TCOON:006:1,2013-12-13T10:18:00Z,27.8217,-97.2040,0.979,1111122 
TCOON,ioos:station:TCOON:006:1,2013-12-13T10:48:00Z,27.8217,-97.2040,0.963,1111122 
TCOON,ioos:station:TCOON:006:1,2013-12-13T11:18:00Z,27.8217,-97.2040,0.954,1111122 
TCOON,ioos:station:TCOON:006:1,2013-12-13T11:48:00Z,27.8217,-97.2040,0.951,1111122 
TCOON,ioos:station:TCOON:006:1,2013-12-13T12:18:00Z,27.8217,-97.2040,0.939,1111122 
TCOON,ioos:station:TCOON:006:1,2013-12-13T12:48:00Z,27.8217,-97.2040,0.928,1111122 
TCOON,ioos:station:TCOON:006:1,2013-12-13T13:24:00Z,27.8217,-97.2040,0.914,1111122 
TCOON,ioos:station:TCOON:006:1,2013-12-13T13:48:00Z,27.8217,-97.2040,0.917,1111122 
TCOON,ioos:station:TCOON:006:1,2013-12-13T14:24:00Z,27.8217,-97.2040,0.893,1111122 
TCOON,ioos:station:TCOON:006:1,2013-12-13T14:48:00Z,27.8217,-97.2040,0.894,1111122 
TCOON,ioos:station:TCOON:006:1,2013-12-13T15:18:00Z,27.8217,-97.2040,0.895,1111122 
TCOON,ioos:station:TCOON:006:1,2013-12-13T16:48:00Z,27.8217,-97.2040,0.905,1111122 
TCOON,ioos:station:TCOON:006:1,2013-12-13T17:06:00Z,27.8217,-97.2040,0.907,1111122 
TCOON,ioos:station:TCOON:006:1,2013-12-13T17:36:00Z,27.8217,-97.2040,0.917,1111122 
TCOON,ioos:station:TCOON:006:1,2013-12-13T18:06:00Z,27.8217,-97.2040,0.943,1111122 
TCOON,ioos:station:TCOON:006:1,2013-12-13T18:36:00Z,27.8217,-97.2040,0.962,1111122 
TCOON,ioos:station:TCOON:006:1,2013-12-13T19:06:00Z,27.8217,-97.2040,0.984,1111122 
TCOON,ioos:station:TCOON:006:1,2013-12-13T19:36:00Z,27.8217,-97.2040,0.987,1111122 
TCOON,ioos:station:TCOON:006:1,2013-12-13T20:06:00Z,27.8217,-97.2040,0.997,1111122 
TCOON,ioos:station:TCOON:006:1,2013-12-13T20:36:00Z,27.8217,-97.2040,1.01,1111122 
TCOON,ioos:station:TCOON:006:1,2013-12-13T21:06:00Z,27.8217,-97.2040,1.028,1111122 
TCOON,ioos:station:TCOON:006:1,2013-12-13T21:36:00Z,27.8217,-97.2040,1.02,1111122 
TCOON,ioos:station:TCOON:006:1,2013-12-13T22:06:00Z,27.8217,-97.2040,1.041,1111122 
TCOON,ioos:station:TCOON:006:1,2013-12-13T22:36:00Z,27.8217,-97.2040,1.051,1111122 
TCOON,ioos:station:TCOON:006:1,2013-12-13T23:06:00Z,27.8217,-97.2040,1.057,1111122 
TCOON,ioos:station:TCOON:006:1,2013-12-13T23:36:00Z,27.8217,-97.2040,1.072,1111122 
TCOON,ioos:station:TCOON:006:1,2013-12-14T00:06:00Z,27.8217,-97.2040,1.077,1111122 
TCOON,ioos:station:TCOON:006:1,2013-12-14T00:36:00Z,27.8217,-97.2040,1.099,1111122 
TCOON,ioos:station:TCOON:006:1,2013-12-14T01:06:00Z,27.8217,-97.2040,1.089,1111122 
TCOON,ioos:station:TCOON:006:1,2013-12-14T01:36:00Z,27.8217,-97.2040,1.094,1111122 
TCOON,ioos:station:TCOON:006:1,2013-12-14T02:06:00Z,27.8217,-97.2040,1.106,1111122 
TCOON,ioos:station:TCOON:006:1,2013-12-14T02:36:00Z,27.8217,-97.2040,1.11,1111122 
TCOON,ioos:station:TCOON:006:1,2013-12-14T03:06:00Z,27.8217,-97.2040,1.122,1111122 
TCOON,ioos:station:TCOON:006:1,2013-12-14T03:36:00Z,27.8217,-97.2040,1.123,1111122 
TCOON,ioos:station:TCOON:006:1,2013-12-14T04:06:00Z,27.8217,-97.2040,1.117,1111122 
TCOON,ioos:station:TCOON:006:1,2013-12-14T04:36:00Z,27.8217,-97.2040,1.113,1111122 
TCOON,ioos:station:TCOON:006:1,2013-12-14T05:06:00Z,27.8217,-97.2040,1.116,1111122 
TCOON,ioos:station:TCOON:006:1,2013-12-14T06:06:00Z,27.8217,-97.2040,1.107,1111122 
TCOON,ioos:station:TCOON:006:1,2013-12-14T06:36:00Z,27.8217,-97.2040,1.098,1111122 
TCOON,ioos:station:TCOON:006:1,2013-12-14T07:06:00Z,27.8217,-97.2040,1.096,1111122 
TCOON,ioos:station:TCOON:006:1,2013-12-14T07:36:00Z,27.8217,-97.2040,1.083,1111122 
TCOON,ioos:station:TCOON:006:1,2013-12-14T08:06:00Z,27.8217,-97.2040,1.085,1111122 
TCOON,ioos:station:TCOON:006:1,2013-12-14T08:36:00Z,27.8217,-97.2040,1.074,1111122 
TCOON,ioos:station:TCOON:006:1,2013-12-14T09:06:00Z,27.8217,-97.2040,1.059,1111122 
TCOON,ioos:station:TCOON:006:1,2013-12-14T09:36:00Z,27.8217,-97.2040,1.052,1111122 
TCOON,ioos:station:TCOON:006:1,2013-12-14T10:06:00Z,27.8217,-97.2040,1.041,1111122 
TCOON,ioos:station:TCOON:006:1,2013-12-14T10:36:00Z,27.8217,-97.2040,1.032,1111122 
TCOON,ioos:station:TCOON:006:1,2013-12-14T11:06:00Z,27.8217,-97.2040,1.015,1111122 
TCOON,ioos:station:TCOON:006:1,2013-12-14T11:36:00Z,27.8217,-97.2040,1.004,1111122 
TCOON,ioos:station:TCOON:006:1,2013-12-14T12:06:00Z,27.8217,-97.2040,0.987,1111122 
TCOON,ioos:station:TCOON:006:1,2013-12-14T12:36:00Z,27.8217,-97.2040,0.975,1111122 
TCOON,ioos:station:TCOON:006:1,2013-12-14T13:06:00Z,27.8217,-97.2040,0.968,1111122 
TCOON,ioos:station:TCOON:006:1,2013-12-14T13:36:00Z,27.8217,-97.2040,0.958,1111122 
TCOON,ioos:station:TCOON:006:1,2013-12-14T14:06:00Z,27.8217,-97.2040,0.943,1111122 
TCOON,ioos:station:TCOON:006:1,2013-12-14T14:36:00Z,27.8217,-97.2040,0.939,1111122 
TCOON,ioos:station:TCOON:006:1,2013-12-14T15:06:00Z,27.8217,-97.2040,0.927,1111122 
TCOON,ioos:station:TCOON:006:1,2013-12-14T15:36:00Z,27.8217,-97.2040,0.918,1111122 
TCOON,ioos:station:TCOON:006:1,2013-12-14T16:06:00Z,27.8217,-97.2040,0.914,1111122 
TCOON,ioos:station:TCOON:006:1,2013-12-14T16:36:00Z,27.8217,-97.2040,0.912,1111122 
TCOON,ioos:station:TCOON:006:1,2013-12-14T17:06:00Z,27.8217,-97.2040,0.904,1111122 
TCOON,ioos:station:TCOON:006:1,2013-12-14T17:36:00Z,27.8217,-97.2040,0.903,1111122 
TCOON,ioos:station:TCOON:006:1,2013-12-14T18:06:00Z,27.8217,-97.2040,0.931,1111122 
TCOON,ioos:station:TCOON:006:1,2013-12-14T18:36:00Z,27.8217,-97.2040,0.922,1111122 
TCOON,ioos:station:TCOON:006:1,2013-12-14T19:06:00Z,27.8217,-97.2040,0.931,1111122 
TCOON,ioos:station:TCOON:006:1,2013-12-14T19:36:00Z,27.8217,-97.2040,0.953,1111122 
TCOON,ioos:station:TCOON:006:1,2013-12-14T20:12:00Z,27.8217,-97.2040,0.946,1111122 
TCOON,ioos:station:TCOON:006:1,2013-12-14T20:36:00Z,27.8217,-97.2040,0.98,1111122 
TCOON,ioos:station:TCOON:006:1,2013-12-14T21:12:00Z,27.8217,-97.2040,0.991,1111122 
TCOON,ioos:station:TCOON:006:1,2013-12-14T21:42:00Z,27.8217,-97.2040,1.009,1111122 
TCOON,ioos:station:TCOON:006:1,2013-12-14T22:06:00Z,27.8217,-97.2040,0.996,1111122 
TCOON,ioos:station:TCOON:006:1,2013-12-14T22:42:00Z,27.8217,-97.2040,1.004,1111122 
TCOON,ioos:station:TCOON:006:1,2013-12-14T23:12:00Z,27.8217,-97.2040,1.007,1111122 
TCOON,ioos:station:TCOON:006:1,2013-12-14T23:42:00Z,27.8217,-97.2040,1.019,1111122 
TCOON,ioos:station:TCOON:006:1,2013-12-15T00:12:00Z,27.8217,-97.2040,1.029,1111122 
TCOON,ioos:station:TCOON:006:1,2013-12-15T00:42:00Z,27.8217,-97.2040,1.028,1111122 
TCOON,ioos:station:TCOON:006:1,2013-12-15T01:12:00Z,27.8217,-97.2040,1.028,1111122 
TCOON,ioos:station:TCOON:006:1,2013-12-15T01:42:00Z,27.8217,-97.2040,1.026,1111122 
TCOON,ioos:station:TCOON:006:1,2013-12-15T02:12:00Z,27.8217,-97.2040,1.03,1111122 
TCOON,ioos:station:TCOON:006:1,2013-12-15T02:42:00Z,27.8217,-97.2040,1.029,1111122 
TCOON,ioos:station:TCOON:006:1,2013-12-15T03:06:00Z,27.8217,-97.2040,1.029,1111122 
TCOON,ioos:station:TCOON:006:1,2013-12-15T03:42:00Z,27.8217,-97.2040,1.035,1111122 
TCOON,ioos:station:TCOON:006:1,2013-12-15T04:12:00Z,27.8217,-97.2040,1.023,1111122 
TCOON,ioos:station:TCOON:006:1,2013-12-15T04:42:00Z,27.8217,-97.2040,0.982,1111122 
TCOON,ioos:station:TCOON:006:1,2013-12-15T05:12:00Z,27.8217,-97.2040,1.017,1111122 
TCOON,ioos:station:TCOON:006:1,2013-12-15T05:42:00Z,27.8217,-97.2040,1.006,1111122 
TCOON,ioos:station:TCOON:006:1,2013-12-15T06:12:00Z,27.8217,-97.2040,1.005,1111122 
TCOON,ioos:station:TCOON:006:1,2013-12-15T06:42:00Z,27.8217,-97.2040,0.99,1111122 
TCOON,ioos:station:TCOON:006:1,2013-12-15T07:12:00Z,27.8217,-97.2040,0.978,1111122 
TCOON,ioos:station:TCOON:006:1,2013-12-15T07:42:00Z,27.8217,-97.2040,0.977,1111122 
TCOON,ioos:station:TCOON:006:1,2013-12-15T08:12:00Z,27.8217,-97.2040,0.959,1111122 
TCOON,ioos:station:TCOON:006:1,2013-12-15T08:42:00Z,27.8217,-97.2040,0.945,1111122 
TCOON,ioos:station:TCOON:006:1,2013-12-15T09:12:00Z,27.8217,-97.2040,0.928,1111122 
TCOON,ioos:station:TCOON:006:1,2013-12-15T09:42:00Z,27.8217,-97.2040,0.884,1111122 
TCOON,ioos:station:TCOON:006:1,2013-12-15T10:12:00Z,27.8217,-97.2040,0.908,1111122 
TCOON,ioos:station:TCOON:006:1,2013-12-15T10:42:00Z,27.8217,-97.2040,0.883,1111122 
TCOON,ioos:station:TCOON:006:1,2013-12-15T11:12:00Z,27.8217,-97.2040,0.874,1111122 
TCOON,ioos:station:TCOON:006:1,2013-12-15T11:42:00Z,27.8217,-97.2040,0.864,1111122 
TCOON,ioos:station:TCOON:006:1,2013-12-15T12:12:00Z,27.8217,-97.2040,0.862,1111122 
TCOON,ioos:station:TCOON:006:1,2013-12-15T12:42:00Z,27.8217,-97.2040,0.824,1111122 
TCOON,ioos:station:TCOON:006:1,2013-12-15T13:12:00Z,27.8217,-97.2040,0.814,1111122 
TCOON,ioos:station:TCOON:006:1,2013-12-15T13:42:00Z,27.8217,-97.2040,0.802,1111122 
TCOON,ioos:station:TCOON:006:1,2013-12-15T14:12:00Z,27.8217,-97.2040,0.789,1111122 
TCOON,ioos:station:TCOON:006:1,2013-12-15T14:42:00Z,27.8217,-97.2040,0.845,1111122 
TCOON,ioos:station:TCOON:006:1,2013-12-15T15:12:00Z,27.8217,-97.2040,0.884,1111122 
TCOON,ioos:station:TCOON:006:1,2013-12-15T15:48:00Z,27.8217,-97.2040,0.775,1111122 
TCOON,ioos:station:TCOON:006:1,2013-12-15T16:12:00Z,27.8217,-97.2040,0.75,1111122 
TCOON,ioos:station:TCOON:006:1,2013-12-15T16:42:00Z,27.8217,-97.2040,0.736,1111122 
TCOON,ioos:station:TCOON:006:1,2013-12-15T17:12:00Z,27.8217,-97.2040,0.726,1111122 
TCOON,ioos:station:TCOON:006:1,2013-12-15T17:42:00Z,27.8217,-97.2040,0.726,1111122 
TCOON,ioos:station:TCOON:006:1,2013-12-15T18:12:00Z,27.8217,-97.2040,0.885,1111122 
TCOON,ioos:station:TCOON:006:1,2013-12-15T18:42:00Z,27.8217,-97.2040,0.885,1111122 
TCOON,ioos:station:TCOON:006:1,2013-12-15T19:12:00Z,27.8217,-97.2040,0.886,1111122 
TCOON,ioos:station:TCOON:006:1,2013-12-15T19:42:00Z,27.8217,-97.2040,0.887,1111122 
TCOON,ioos:station:TCOON:006:1,2013-12-15T20:12:00Z,27.8217,-97.2040,0.888,1111122 
TCOON,ioos:station:TCOON:006:1,2013-12-15T20:42:00Z,27.8217,-97.2040,0.889,1111122 
TCOON,ioos:station:TCOON:006:1,2013-12-15T21:18:00Z,27.8217,-97.2040,0.889,1111122 
TCOON,ioos:station:TCOON:006:1,2013-12-15T21:42:00Z,27.8217,-97.2040,0.889,1111122 
TCOON,ioos:station:TCOON:006:1,2013-12-15T22:12:00Z,27.8217,-97.2040,0.889,1111122 
TCOON,ioos:station:TCOON:006:1,2013-12-15T22:48:00Z,27.8217,-97.2040,0.888,1111122 
TCOON,ioos:station:TCOON:006:1,2013-12-15T23:12:00Z,27.8217,-97.2040,0.887,1111122 
TCOON,ioos:station:TCOON:006:1,2013-12-15T23:48:00Z,27.8217,-97.2040,0.885,1111122 
TCOON,ioos:station:TCOON:006:1,2013-12-16T00:18:00Z,27.8217,-97.2040,0.885,1111122 
TCOON,ioos:station:TCOON:006:1,2013-12-16T00:48:00Z,27.8217,-97.2040,0.876,1111122 
TCOON,ioos:station:TCOON:006:1,2013-12-16T01:18:00Z,27.8217,-97.2040,0.885,1111122 
TCOON,ioos:station:TCOON:006:1,2013-12-16T01:48:00Z,27.8217,-97.2040,0.866,1111122 
TCOON,ioos:station:TCOON:006:1,2013-12-16T02:18:00Z,27.8217,-97.2040,0.892,1111122 
TCOON,ioos:station:TCOON:006:1,2013-12-16T02:48:00Z,27.8217,-97.2040,0.876,1111122 
TCOON,ioos:station:TCOON:006:1,2013-12-16T03:18:00Z,27.8217,-97.2040,0.872,1111122 
TCOON,ioos:station:TCOON:006:1,2013-12-16T03:48:00Z,27.8217,-97.2040,0.886,1111122 
TCOON,ioos:station:TCOON:006:1,2013-12-16T04:18:00Z,27.8217,-97.2040,0.883,1111122 
TCOON,ioos:station:TCOON:006:1,2013-12-16T04:48:00Z,27.8217,-97.2040,0.888,1111122 
TCOON,ioos:station:TCOON:006:1,2013-12-16T05:18:00Z,27.8217,-97.2040,0.867,1111122 
TCOON,ioos:station:TCOON:006:1,2013-12-16T05:48:00Z,27.8217,-97.2040,0.893,1111122 
TCOON,ioos:station:TCOON:006:1,2013-12-16T06:18:00Z,27.8217,-97.2040,0.895,1111122 
TCOON,ioos:station:TCOON:006:1,2013-12-16T06:48:00Z,27.8217,-97.2040,0.904,1111122 
TCOON,ioos:station:TCOON:006:1,2013-12-16T07:18:00Z,27.8217,-97.2040,0.887,1111122 
TCOON,ioos:station:TCOON:006:1,2013-12-16T07:48:00Z,27.8217,-97.2040,0.888,1111122 
TCOON,ioos:station:TCOON:006:1,2013-12-16T08:18:00Z,27.8217,-97.2040,0.883,1111122 
TCOON,ioos:station:TCOON:006:1,2013-12-16T08:48:00Z,27.8217,-97.2040,0.873,1111122 
TCOON,ioos:station:TCOON:006:1,2013-12-16T09:18:00Z,27.8217,-97.2040,0.87,1111122 
TCOON,ioos:station:TCOON:006:1,2013-12-16T09:48:00Z,27.8217,-97.2040,0.854,1111122 
TCOON,ioos:station:TCOON:006:1,2013-12-16T10:18:00Z,27.8217,-97.2040,0.845,1111122 
TCOON,ioos:station:TCOON:006:1,2013-12-16T10:48:00Z,27.8217,-97.2040,0.831,1111122 
TCOON,ioos:station:TCOON:006:1,2013-12-16T11:18:00Z,27.8217,-97.2040,0.794,1111122 
TCOON,ioos:station:TCOON:006:1,2013-12-16T11:48:00Z,27.8217,-97.2040,0.811,1111122 
TCOON,ioos:station:TCOON:006:1,2013-12-16T12:18:00Z,27.8217,-97.2040,0.794,1111122 
TCOON,ioos:station:TCOON:006:1,2013-12-16T12:48:00Z,27.8217,-97.2040,0.777,1111122 
TCOON,ioos:station:TCOON:006:1,2013-12-16T13:18:00Z,27.8217,-97.2040,0.762,1111122 
TCOON,ioos:station:TCOON:006:1,2013-12-16T13:48:00Z,27.8217,-97.2040,0.749,1111122 
TCOON,ioos:station:TCOON:006:1,2013-12-16T14:18:00Z,27.8217,-97.2040,0.694,1111122 
TCOON,ioos:station:TCOON:006:1,2013-12-16T14:48:00Z,27.8217,-97.2040,0.717,1111122 
TCOON,ioos:station:TCOON:006:1,2013-12-16T15:18:00Z,27.8217,-97.2040,0.707,1111122 
TCOON,ioos:station:TCOON:006:1,2013-12-16T15:48:00Z,27.8217,-97.2040,0.697,1111122 
TCOON,ioos:station:TCOON:006:1,2013-12-16T16:18:00Z,27.8217,-97.2040,0.681,1111122 
TCOON,ioos:station:TCOON:006:1,2013-12-16T16:48:00Z,27.8217,-97.2040,0.681,1111122 
TCOON,ioos:station:TCOON:006:1,2013-12-16T17:18:00Z,27.8217,-97.2040,0.676,1111122 
TCOON,ioos:station:TCOON:006:1,2013-12-16T17:48:00Z,27.8217,-97.2040,0.679,1111122 
TCOON,ioos:station:TCOON:006:1,2013-12-16T18:18:00Z,27.8217,-97.2040,0.692,1111122 
TCOON,ioos:station:TCOON:006:1,2013-12-16T18:48:00Z,27.8217,-97.2040,0.672,1111122 
TCOON,ioos:station:TCOON:006:1,2013-12-16T19:18:00Z,27.8217,-97.2040,0.679,1111122 
TCOON,ioos:station:TCOON:006:1,2013-12-16T19:48:00Z,27.8217,-97.2040,0.688,1111122 
TCOON,ioos:station:TCOON:006:1,2013-12-16T20:18:00Z,27.8217,-97.2040,0.701,1111122 
TCOON,ioos:station:TCOON:006:1,2013-12-16T20:48:00Z,27.8217,-97.2040,0.885,1111122 
TCOON,ioos:station:TCOON:006:1,2013-12-16T21:18:00Z,27.8217,-97.2040,0.886,1111122 
TCOON,ioos:station:TCOON:006:1,2013-12-16T21:48:00Z,27.8217,-97.2040,0.886,1111122 
TCOON,ioos:station:TCOON:006:1,2013-12-16T22:18:00Z,27.8217,-97.2040,0.885,1111122 
TCOON,ioos:station:TCOON:006:1,2013-12-16T22:48:00Z,27.8217,-97.2040,0.789,1111122 
TCOON,ioos:station:TCOON:006:1,2013-12-16T23:18:00Z,27.8217,-97.2040,0.798,1111122 
TCOON,ioos:station:TCOON:006:1,2013-12-16T23:48:00Z,27.8217,-97.2040,0.808,1111122 
TCOON,ioos:station:TCOON:006:1,2013-12-17T00:18:00Z,27.8217,-97.2040,0.855,1111122 
TCOON,ioos:station:TCOON:006:1,2013-12-17T00:48:00Z,27.8217,-97.2040,0.831,1111122 
TCOON,ioos:station:TCOON:006:1,2013-12-17T01:18:00Z,27.8217,-97.2040,0.845,1111122 
TCOON,ioos:station:TCOON:006:1,2013-12-17T01:48:00Z,27.8217,-97.2040,0.86,1111122 
TCOON,ioos:station:TCOON:006:1,2013-12-17T02:18:00Z,27.8217,-97.2040,0.874,1111122 
TCOON,ioos:station:TCOON:006:1,2013-12-17T02:48:00Z,27.8217,-97.2040,0.889,1111122 
TCOON,ioos:station:TCOON:006:1,2013-12-17T03:18:00Z,27.8217,-97.2040,0.897,1111122 
TCOON,ioos:station:TCOON:006:1,2013-12-17T03:48:00Z,27.8217,-97.2040,0.905,1111122 
TCOON,ioos:station:TCOON:006:1,2013-12-17T04:18:00Z,27.8217,-97.2040,0.916,1111122 
TCOON,ioos:station:TCOON:006:1,2013-12-17T04:48:00Z,27.8217,-97.2040,0.928,1111122 
TCOON,ioos:station:TCOON:006:1,2013-12-17T05:18:00Z,27.8217,-97.2040,0.932,1111122 
TCOON,ioos:station:TCOON:006:1,2013-12-17T05:48:00Z,27.8217,-97.2040,0.943,1111122 
TCOON,ioos:station:TCOON:006:1,2013-12-17T06:18:00Z,27.8217,-97.2040,0.941,1111122 
TCOON,ioos:station:TCOON:006:1,2013-12-17T06:48:00Z,27.8217,-97.2040,0.948,1111122 
TCOON,ioos:station:TCOON:006:1,2013-12-17T07:18:00Z,27.8217,-97.2040,0.949,1111122 
TCOON,ioos:station:TCOON:006:1,2013-12-17T07:48:00Z,27.8217,-97.2040,0.95,1111122 
TCOON,ioos:station:TCOON:006:1,2013-12-17T08:18:00Z,27.8217,-97.2040,0.946,1111122 
TCOON,ioos:station:TCOON:006:1,2013-12-17T08:48:00Z,27.8217,-97.2040,0.949,1111122 
TCOON,ioos:station:TCOON:006:1,2013-12-17T09:18:00Z,27.8217,-97.2040,0.936,1111122 
TCOON,ioos:station:TCOON:006:1,2013-12-17T09:48:00Z,27.8217,-97.2040,0.933,1111122 
TCOON,ioos:station:TCOON:006:1,2013-12-17T10:18:00Z,27.8217,-97.2040,0.917,1111122 
TCOON,ioos:station:TCOON:006:1,2013-12-17T10:48:00Z,27.8217,-97.2040,0.908,1111122 
TCOON,ioos:station:TCOON:006:1,2013-12-17T11:18:00Z,27.8217,-97.2040,0.896,1111122 
TCOON,ioos:station:TCOON:006:1,2013-12-17T11:48:00Z,27.8217,-97.2040,0.883,1111122 
TCOON,ioos:station:TCOON:006:1,2013-12-17T12:18:00Z,27.8217,-97.2040,0.865,1111122 
TCOON,ioos:station:TCOON:006:1,2013-12-17T12:48:00Z,27.8217,-97.2040,0.856,1111122 
TCOON,ioos:station:TCOON:006:1,2013-12-17T13:18:00Z,27.8217,-97.2040,0.839,1111122 
TCOON,ioos:station:TCOON:006:1,2013-12-17T13:48:00Z,27.8217,-97.2040,0.815,1111122 
TCOON,ioos:station:TCOON:006:1,2013-12-17T14:18:00Z,27.8217,-97.2040,0.803,1111122 
TCOON,ioos:station:TCOON:006:1,2013-12-17T14:48:00Z,27.8217,-97.2040,0.73,1111122 
TCOON,ioos:station:TCOON:006:1,2013-12-17T15:18:00Z,27.8217,-97.2040,0.761,1111122 
TCOON,ioos:station:TCOON:006:1,2013-12-17T15:48:00Z,27.8217,-97.2040,0.762,1111122 
TCOON,ioos:station:TCOON:006:1,2013-12-17T16:24:00Z,27.8217,-97.2040,0.753,1111122 
TCOON,ioos:station:TCOON:006:1,2013-12-17T16:48:00Z,27.8217,-97.2040,0.736,1111122 
TCOON,ioos:station:TCOON:006:1,2013-12-17T17:18:00Z,27.8217,-97.2040,0.74,1111122 
TCOON,ioos:station:TCOON:006:1,2013-12-17T17:48:00Z,27.8217,-97.2040,0.728,1111122 
TCOON,ioos:station:TCOON:006:1,2013-12-17T18:18:00Z,27.8217,-97.2040,0.733,1111122 
TCOON,ioos:station:TCOON:006:1,2013-12-17T18:48:00Z,27.8217,-97.2040,0.734,1111122 
TCOON,ioos:station:TCOON:006:1,2013-12-17T19:24:00Z,27.8217,-97.2040,0.733,1111122 
TCOON,ioos:station:TCOON:006:1,2013-12-17T19:48:00Z,27.8217,-97.2040,0.882,1111122 
TCOON,ioos:station:TCOON:006:1,2013-12-17T20:24:00Z,27.8217,-97.2040,0.744,1111122 
TCOON,ioos:station:TCOON:006:1,2013-12-17T20:54:00Z,27.8217,-97.2040,0.842,1111122 
TCOON,ioos:station:TCOON:006:1,2013-12-17T21:48:00Z,27.8217,-97.2040,0.885,1111122 
TCOON,ioos:station:TCOON:006:1,2013-12-17T22:24:00Z,27.8217,-97.2040,0.884,1111122 
TCOON,ioos:station:TCOON:006:1,2013-12-17T23:24:00Z,27.8217,-97.2040,0.885,1111122 
TCOON,ioos:station:TCOON:006:1,2013-12-18T00:18:00Z,27.8217,-97.2040,0.846,1111122 
TCOON,ioos:station:TCOON:006:1,2013-12-18T00:48:00Z,27.8217,-97.2040,0.867,1111122 
TCOON,ioos:station:TCOON:006:1,2013-12-18T01:18:00Z,27.8217,-97.2040,0.888,1111122 
TCOON,ioos:station:TCOON:006:1,2013-12-18T01:48:00Z,27.8217,-97.2040,0.903,1111122 
TCOON,ioos:station:TCOON:006:1,2013-12-18T02:18:00Z,27.8217,-97.2040,0.912,1111122 
TCOON,ioos:station:TCOON:006:1,2013-12-18T02:48:00Z,27.8217,-97.2040,0.922,1111122 
TCOON,ioos:station:TCOON:006:1,2013-12-18T03:18:00Z,27.8217,-97.2040,0.913,1111122 
TCOON,ioos:station:TCOON:006:1,2013-12-18T03:48:00Z,27.8217,-97.2040,0.946,1111122 
TCOON,ioos:station:TCOON:006:1,2013-12-18T04:18:00Z,27.8217,-97.2040,0.936,1111122 
TCOON,ioos:station:TCOON:006:1,2013-12-18T04:48:00Z,27.8217,-97.2040,0.957,1111122 
TCOON,ioos:station:TCOON:006:1,2013-12-18T05:48:00Z,27.8217,-97.2040,0.969,1111122 
TCOON,ioos:station:TCOON:006:1,2013-12-18T06:18:00Z,27.8217,-97.2040,0.972,1111122 
TCOON,ioos:station:TCOON:006:1,2013-12-18T06:48:00Z,27.8217,-97.2040,0.977,1111122 
TCOON,ioos:station:TCOON:006:1,2013-12-18T07:18:00Z,27.8217,-97.2040,0.972,1111122 
TCOON,ioos:station:TCOON:006:1,2013-12-18T07:48:00Z,27.8217,-97.2040,0.97,1111122 
TCOON,ioos:station:TCOON:006:1,2013-12-18T08:18:00Z,27.8217,-97.2040,0.968,1111122 
TCOON,ioos:station:TCOON:006:1,2013-12-18T08:48:00Z,27.8217,-97.2040,0.967,1111122 
TCOON,ioos:station:TCOON:006:1,2013-12-18T09:18:00Z,27.8217,-97.2040,0.962,1111122 
TCOON,ioos:station:TCOON:006:1,2013-12-18T09:48:00Z,27.8217,-97.2040,0.953,1111122 
TCOON,ioos:station:TCOON:006:1,2013-12-18T10:18:00Z,27.8217,-97.2040,0.944,1111122 
TCOON,ioos:station:TCOON:006:1,2013-12-18T10:48:00Z,27.8217,-97.2040,0.931,1111122 
TCOON,ioos:station:TCOON:006:1,2013-12-18T11:18:00Z,27.8217,-97.2040,0.92,1111122 
TCOON,ioos:station:TCOON:006:1,2013-12-18T11:48:00Z,27.8217,-97.2040,0.908,1111122 
TCOON,ioos:station:TCOON:006:1,2013-12-18T12:18:00Z,27.8217,-97.2040,0.887,1111122 
TCOON,ioos:station:TCOON:006:1,2013-12-18T12:48:00Z,27.8217,-97.2040,0.876,1111122 